This is the latest recevied weather packets stored in our database for station/object NW5W-12. If no packets are shown the sender has not sent any weather packets the latest 1 day(s).
| Time | Temp. | Humidity | Pressure | Rain* | Wind** | Luminosity | Snow |
|---|---|---|---|---|---|---|---|
| 1777982742 | 7.78° C | 69% | 1011.4 hPa | 0 mm | 2.68 m/s, 154° | - | - |
| 1777982442 | 7.78° C | 69% | 1011.4 hPa | 0 mm | 0.89 m/s, 162° | - | - |
| 1777982142 | 7.78° C | 69% | 1011.5 hPa | 0 mm | 0.89 m/s, 128° | - | - |
| 1777981842 | 8.33° C | 66% | 1011.5 hPa | 0 mm | 1.79 m/s, 165° | - | - |
| 1777981542 | 8.33° C | 66% | 1011.6 hPa | 0 mm | 2.24 m/s, 165° | - | - |
| 1777981242 | 7.78° C | 68% | 1011.5 hPa | 0 mm | 3.58 m/s, 139° | - | - |
| 1777980942 | 7.78° C | 70% | 1011.5 hPa | 0 mm | 3.58 m/s, 141° | - | - |
| 1777980642 | 7.78° C | 71% | 1011.5 hPa | 0 mm | 3.58 m/s, 154° | - | - |
| 1777980342 | 7.78° C | 72% | 1011.5 hPa | 0 mm | 3.58 m/s, 152° | - | - |
| 1777980042 | 7.78° C | 74% | 1011.5 hPa | 0 mm | 1.79 m/s, 154° | - | - |
| 1777979742 | 7.22° C | 75% | 1011.5 hPa | 0 mm | 2.68 m/s, 152° | - | - |
| 1777979442 | 7.22° C | 76% | 1011.5 hPa | 0 mm | 1.79 m/s, 162° | - | - |
| 1777979142 | 7.22° C | 76% | 1011.5 hPa | 0 mm | 3.13 m/s, 163° | - | - |
| 1777978842 | 7.22° C | 76% | 1011.5 hPa | 0 mm | 2.24 m/s, 158° | - | - |
| 1777978542 | 7.22° C | 76% | 1011.5 hPa | 0 mm | 1.79 m/s, 160° | - | - |
| 1777978242 | 7.22° C | 76% | 1011.5 hPa | 0 mm | 2.68 m/s, 142° | - | - |
| 1777977942 | 7.22° C | 78% | 1011.5 hPa | 0 mm | 2.68 m/s, 152° | - | - |
| 1777977642 | 7.22° C | 80% | 1011.5 hPa | 0 mm | 1.79 m/s, 155° | - | - |
| 1777977342 | 7.22° C | 81% | 1011.5 hPa | 0 mm | 1.79 m/s, 143° | - | - |
| 1777977042 | 7.22° C | 82% | 1011.5 hPa | 0 mm | 1.34 m/s, 174° | - | - |
* Rain since midnight (hover to see other rain measurements)
** Current wind speed in m/s (hover to see current wind gust speed)